GFSSW_sfc_wetblb_057.txt.gz
Wetbulb
58.87 59.00 59.06 59.22 59.38 59.49 59.60 59.64 59.81 60.23 60.67 61.01 61.55 61.69 61.34 61.00 60.13 54.64 48.39 53.73 55.55 61.84 59.45 48.79 47.89 47.50 47.77 46.29 44.74 42.52 38.40 35.88 37.66 37.66 40.78 40.92 42.01 42.24 44.08 43.89 44.29 45.24 45.80 47.48 52.61
58.36 58.52 58.63 58.70 58.95 59.11 59.23 59.18 59.33 59.63 60.06 60.54 61.01 61.34 61.04 60.55 52.57 49.76 58.26 62.60 62.25 60.55 48.66 46.46 44.63 45.88 44.00 44.32 43.12 39.46 36.58 38.24 39.90 39.56 40.53 41.46 42.24 42.28 43.14 42.94 43.38 44.04 45.15 47.21 51.59
57.93 58.12 58.10 58.18 58.51 58.88 58.98 59.09 59.23 59.28 59.68 60.11 60.71 61.32 60.84 57.23 47.33 47.16 60.55 62.03 61.71 56.67 49.91 48.34 46.31 45.03 42.11 42.79 41.35 38.81 36.29 38.83 40.86 42.09 42.55 42.10 40.99 42.47 41.92 41.13 43.63 44.15 44.75 46.39 50.19
57.93 57.67 57.58 57.58 57.85 58.47 58.75 58.88 59.09 59.15 59.42 59.80 60.81 61.08 59.71 50.52 36.57 50.00 60.36 61.60 60.82 52.13 48.89 46.51 44.52 41.63 39.75 39.39 41.91 38.27 39.08 39.93 43.27 43.23 41.81 41.14 41.76 41.36 41.39 43.78 44.51 44.42 45.40 46.46 48.67
57.99 57.53 57.23 57.20 57.36 57.91 58.38 58.65 58.83 58.94 59.14 59.64 60.90 60.55 51.24 43.57 44.91 52.72 59.26 57.03 50.35 48.90 46.40 44.59 42.07 41.41 39.07 40.80 40.82 38.52 39.58 41.13 42.49 41.80 41.24 42.20 41.10 41.60 41.36 43.07 43.85 43.32 44.03 45.92 48.39
56.99 56.92 57.37 57.22 57.56 57.87 58.12 58.35 58.54 58.65 58.70 59.32 60.61 58.84 46.49 37.70 51.50 51.84 50.08 49.83 49.19 47.58 45.36 44.73 43.11 43.03 41.24 39.77 39.16 40.81 41.09 40.66 41.48 41.76 41.63 41.55 40.71 41.43 42.76 42.20 42.90 42.33 43.02 44.29 46.44
57.56 56.91 56.56 57.18 57.22 57.65 57.84 58.02 58.15 58.28 58.47 59.06 60.09 52.88 44.05 41.99 51.63 49.48 50.11 48.10 47.93 47.53 45.64 45.97 45.35 43.33 42.30 40.36 41.74 40.20 37.83 39.77 39.12 40.99 40.79 41.80 39.25 40.65 42.41 41.82 42.39 42.10 41.69 41.92 43.58
57.98 57.31 57.17 57.23 57.01 57.06 57.58 57.88 57.83 57.87 58.52 59.09 59.89 48.37 39.33 49.24 51.34 49.94 48.64 47.50 48.44 48.08 47.48 46.38 46.61 44.79 42.52 41.70 40.26 37.43 36.81 34.59 38.33 40.03 40.33 40.66 35.92 40.74 40.62 41.41 42.46 41.66 40.74 40.45 42.09
57.80 57.31 57.10 57.13 57.01 56.91 57.25 57.77 57.85 57.85 58.80 59.00 48.92 43.97 38.19 52.14 48.62 50.27 47.65 46.15 46.49 46.64 46.45 47.94 44.81 40.46 40.79 37.09 34.74 34.50 31.58 32.19 36.57 39.71 38.75 38.21 36.63 39.84 39.63 39.00 40.01 40.41 40.40 40.20 40.84
58.06 57.49 57.21 57.13 56.99 56.83 57.53 57.96 57.39 56.54 54.79 51.90 49.90 38.86 41.33 41.29 47.22 48.12 46.65 47.20 44.57 43.44 43.34 43.10 39.39 36.60 34.80 34.99 29.85 31.77 31.52 31.92 32.98 36.70 36.49 35.75 36.29 39.38 39.58 39.17 40.09 39.99 39.94 39.93 40.53
57.94 58.47 57.83 57.41 57.13 57.38 54.55 47.51 44.46 44.02 44.71 38.86 38.77 37.72 42.03 45.46 47.57 46.00 46.38 45.32 43.25 41.61 36.92 37.70 35.51 33.89 36.37 35.62 34.32 33.67 32.00 31.94 34.09 37.22 36.69 36.12 36.08 38.44 40.51 38.05 38.21 39.88 40.15 40.52 40.96
55.78 57.28 58.87 58.06 57.29 57.21 52.17 46.34 43.29 46.71 42.28 45.74 43.52 44.08 46.10 46.86 41.76 44.85 46.82 42.36 39.75 36.17 36.32 34.95 32.76 37.72 37.82 36.21 35.41 33.44 31.86 32.71 34.76 36.21 36.43 35.49 36.02 39.63 38.99 41.47 42.03 42.64 42.64 42.09 43.12
54.49 55.32 57.06 58.14 57.24 55.04 49.79 48.60 51.81 48.84 40.77 42.33 45.21 44.68 44.87 46.11 42.11 42.50 45.25 41.10 37.49 34.79 35.02 33.26 36.08 37.84 37.56 34.29 33.87 32.56 32.11 31.96 33.98 34.39 34.25 33.07 32.38 35.10 38.36 38.93 40.39 40.67 43.02 42.91 43.47
53.73 54.08 57.02 57.11 53.95 53.24 50.49 53.97 53.73 47.73 35.42 38.37 39.00 43.27 43.51 44.28 39.68 44.66 45.02 42.80 36.92 36.50 34.71 34.64 37.60 37.27 34.65 33.65 35.61 30.83 35.21 34.56 33.36 32.57 28.67 32.67 26.37 33.25 36.33 37.61 38.59 41.09 40.97 42.14 43.43
53.24 53.25 53.68 57.20 53.35 51.07 52.64 54.90 54.04 47.88 29.60 37.80 38.54 45.83 42.75 40.31 39.59 40.74 43.37 41.04 36.85 36.88 36.63 34.48 35.09 34.93 34.20 35.19 36.36 33.88 35.26 34.01 32.77 31.27 29.61 29.42 28.26 32.49 33.60 35.72 38.21 41.81 42.81 42.88 42.47
52.50 52.69 53.03 55.32 54.76 54.62 54.70 54.45 51.77 38.34 30.48 35.37 39.23 39.14 38.51 38.70 37.91 39.50 40.05 41.92 39.98 37.15 35.63 34.24 36.41 37.35 37.20 36.44 36.84 36.80 34.85 33.23 31.28 30.53 25.25 29.96 30.27 31.87 32.53 36.63 38.56 40.59 42.13 42.25 41.06
50.87 52.12 50.74 51.66 51.44 54.73 54.42 49.73 35.80 30.82 39.27 34.98 34.97 37.03 36.17 35.66 35.96 37.19 36.46 35.09 33.72 30.91 30.62 33.02 34.49 35.76 37.67 35.01 35.76 34.35 32.90 25.79 23.21 22.81 25.35 28.45 28.24 35.70 36.09 37.97 39.11 41.42 43.18 40.61 40.30
49.37 50.85 48.54 50.54 52.61 54.22 50.77 42.48 30.14 35.76 34.62 36.93 36.68 35.89 33.65 35.72 34.09 33.91 34.14 33.20 35.97 31.94 28.26 29.74 27.61 34.85 37.66 37.14 34.53 33.05 33.29 26.51 19.55 19.11 23.38 27.39 25.47 32.10 37.40 38.81 38.95 39.09 39.17 38.14 39.02
48.84 44.07 44.44 47.32 51.02 53.79 45.61 33.29 32.19 34.46 36.80 36.40 36.38 32.76 32.21 35.01 34.00 32.76 32.22 32.18 35.91 35.93 31.52 27.51 28.37 33.68 35.22 36.27 39.11 32.76 30.79 35.36 28.76 15.43 21.33 26.59 29.51 35.00 36.61 37.50 38.13 39.21 38.52 37.97 38.72
40.71 40.24 40.86 47.87 50.15 50.95 41.81 35.91 37.58 39.17 38.53 38.91 34.38 36.40 31.16 33.16 32.62 30.71 30.84 34.10 34.96 38.00 38.17 33.95 28.50 32.40 33.25 36.07 35.17 34.78 36.57 29.21 27.22 18.78 15.73 24.49 25.80 30.88 34.27 38.10 38.53 38.39 39.03 39.28 38.98
38.40 33.12 40.14 47.51 49.89 42.51 34.71 35.93 39.19 40.73 41.06 39.13 36.17 36.27 34.45 33.96 34.60 30.12 32.54 34.28 35.81 35.42 40.27 36.98 32.98 28.76 31.91 31.64 31.29 32.37 31.14 30.71 30.91 27.53 21.43 18.43 27.53 32.64 36.81 37.65 37.72 38.77 39.14 39.71 39.75
35.87 27.99 40.21 48.28 37.71 37.69 33.37 35.19 40.27 40.75 42.11 40.83 40.23 39.50 36.73 35.36 34.05 32.43 32.17 35.47 37.88 37.90 35.04 37.17 34.91 29.05 29.76 31.99 32.56 30.34 31.26 33.16 26.87 23.23 24.18 23.98 31.07 35.25 36.68 38.41 38.08 38.66 38.78 38.83 38.45
32.50 31.45 38.93 45.51 28.81 30.60 32.07 33.84 36.00 35.94 37.50 39.45 38.97 41.11 39.17 37.31 35.26 35.69 35.17 37.06 38.63 38.63 36.13 37.52 33.66 22.70 29.20 30.27 29.52 29.54 30.99 32.48 30.33 27.14 24.31 24.33 31.02 34.88 35.07 36.47 36.89 37.62 37.78 38.31 37.90
34.67 25.82 30.42 36.16 37.06 30.78 29.38 29.80 31.11 35.86 36.14 37.65 39.27 41.48 39.69 37.65 39.94 36.35 34.04 36.73 38.03 39.52 42.49 41.96 35.42 30.96 29.47 29.43 31.30 28.30 29.91 33.59 34.60 28.81 30.99 28.41 33.96 38.08 35.75 37.11 37.78 38.34 38.25 38.09 38.02
36.36 29.20 29.64 23.62 26.94 30.77 34.49 33.10 29.31 29.14 35.72 36.93 34.33 35.24 35.74 34.43 35.60 36.74 38.66 38.62 39.56 40.61 40.61 40.80 33.53 34.63 35.04 34.12 31.45 31.33 30.81 32.68 32.63 34.53 30.76 34.22 34.22 38.55 39.88 40.30 41.84 42.01 38.57 38.58 38.95
33.21 32.06 30.37 28.01 30.31 27.49 28.85 29.25 30.55 33.16 33.43 31.36 31.80 33.76 34.72 33.06 34.36 32.73 36.41 36.09 36.66 39.11 39.10 40.11 32.51 35.07 33.04 34.79 34.82 31.10 31.64 32.17 33.62 34.77 35.15 36.03 35.37 42.42 43.07 38.62 37.72 39.80 41.56 41.32 39.67
37.91 37.99 34.35 29.83 27.11 27.52 26.69 27.42 28.09 30.60 32.86 35.89 36.68 33.22 33.04 35.16 36.95 37.81 38.25 37.87 38.68 37.67 36.48 36.86 33.71 32.28 30.24 34.11 33.21 29.11 32.93 34.12 34.25 34.94 35.12 31.21 37.15 41.46 40.25 40.71 39.68 39.48 39.12 40.72 41.29

GFSSW_sfc_wetblb_060.txt.gz
Wetbulb
58.88 58.93 58.93 59.08 59.25 59.45 59.55 59.60 59.80 60.11 60.35 60.73 61.06 61.70 61.75 61.18 60.55 58.59 52.67 56.84 58.30 62.43 60.43 53.98 53.35 53.26 53.94 51.85 50.20 49.48 48.16 45.48 45.78 44.93 46.97 47.67 48.01 47.27 49.05 49.55 50.63 52.14 50.88 53.24 61.05
58.37 58.55 58.56 58.72 59.03 59.16 59.26 59.19 59.23 59.53 59.98 60.39 60.76 61.56 61.67 60.77 56.64 53.93 59.40 62.47 62.17 61.03 53.59 52.27 51.00 52.11 51.27 50.10 50.35 50.01 47.45 46.36 47.53 48.08 47.49 47.91 48.59 48.39 48.25 48.48 49.44 49.89 50.91 51.99 59.78
58.13 58.02 57.96 58.09 58.41 58.86 59.01 59.19 59.21 59.35 59.73 60.06 60.73 61.45 61.00 59.45 52.66 51.90 60.79 62.23 62.30 59.28 54.62 53.43 51.93 51.24 49.13 50.11 48.51 46.53 46.27 45.23 46.66 47.20 47.92 47.88 46.92 48.84 48.32 47.26 50.44 50.54 51.76 51.84 58.95
57.95 57.60 57.47 57.39 57.68 58.19 58.66 58.82 59.03 59.28 59.49 59.72 60.74 61.06 59.77 56.00 42.91 54.23 59.69 61.59 61.53 56.17 53.59 51.38 50.54 49.16 47.87 46.64 47.74 45.15 45.52 46.47 47.85 48.36 47.37 46.78 48.10 47.11 48.43 50.74 50.39 51.96 52.47 52.63 57.14
58.02 57.56 57.18 57.10 57.43 57.95 58.28 58.54 58.78 58.92 59.10 59.38 60.44 60.61 56.17 49.58 50.13 56.62 59.12 58.58 54.72 53.83 51.68 50.12 48.84 48.68 45.99 47.52 47.12 45.45 45.96 46.49 47.87 47.35 47.34 46.41 47.16 47.84 47.60 51.30 49.94 49.38 49.52 51.76 54.87
57.66 57.53 57.36 57.15 57.48 57.85 58.11 58.19 58.38 58.55 58.65 59.09 60.36 59.67 52.37 44.85 55.20 54.91 53.73 53.77 53.52 52.97 50.92 50.66 49.14 49.61 48.08 46.75 46.23 47.15 46.73 46.91 47.42 47.61 47.39 46.52 47.45 47.18 49.86 51.03 49.31 48.98 50.43 51.41 52.98
57.68 57.07 56.78 56.93 57.21 57.39 57.76 58.09 58.18 58.12 58.32 59.08 60.01 55.69 48.88 46.90 56.20 54.39 53.59 52.99 52.92 52.59 50.89 51.59 50.83 49.88 49.31 46.85 47.46 46.21 45.13 46.43 46.76 47.02 46.94 47.19 45.03 45.64 50.50 47.96 49.09 49.64 50.56 50.84 51.63
58.17 57.36 57.23 57.23 57.14 57.16 57.29 57.66 58.00 58.00 58.48 59.36 60.22 53.35 45.80 53.37 57.08 53.62 53.28 52.36 53.03 52.99 52.58 52.01 52.86 50.23 48.86 48.32 46.99 45.04 45.46 42.79 45.05 45.36 46.52 46.38 43.50 47.88 47.11 47.96 48.96 50.42 51.05 50.58 50.85
57.97 57.52 57.29 57.10 56.94 56.93 57.29 57.76 57.84 57.93 58.69 58.95 53.62 50.27 44.28 55.33 52.82 54.68 52.85 51.08 51.53 51.51 51.52 50.77 50.97 47.92 47.80 46.08 44.22 44.01 41.13 41.34 43.23 45.47 44.93 45.25 44.83 47.86 46.48 46.15 47.83 49.46 50.13 50.50 50.62
58.25 57.75 57.52 57.26 56.93 56.92 57.77 58.06 57.80 57.58 56.30 53.55 51.70 45.65 47.11 46.63 51.56 51.96 52.14 51.25 49.89 49.84 49.58 49.38 48.27 46.42 45.81 44.55 38.38 40.67 40.45 40.55 41.68 43.60 43.32 44.00 43.87 47.68 48.81 46.01 48.21 49.89 50.50 50.18 49.73
56.59 58.34 58.01 57.69 57.08 57.47 57.60 52.04 51.00 50.25 49.79 45.73 44.18 43.47 46.18 50.34 52.13 50.74 51.00 49.95 49.07 48.35 45.19 44.60 44.35 42.14 44.75 45.32 42.92 42.07 41.11 40.66 42.64 43.26 42.85 44.06 44.50 46.41 48.62 48.64 47.80 48.73 49.80 50.54 50.89
54.79 55.83 58.35 58.23 57.44 57.25 56.21 53.39 48.63 50.47 48.15 49.58 47.62 46.54 49.13 50.91 46.63 49.25 51.14 47.94 46.21 43.53 43.80 43.46 41.13 45.82 43.72 43.04 42.12 41.67 41.19 41.28 43.22 41.82 42.10 43.57 42.84 46.24 47.53 47.72 49.05 49.57 50.07 50.91 51.70
53.69 54.33 56.50 58.24 57.31 56.12 54.42 51.79 54.54 52.92 46.63 47.03 48.30 48.05 48.24 49.52 46.88 47.32 49.68 46.79 44.21 41.19 42.42 41.62 43.22 43.59 42.63 40.68 40.28 41.15 40.58 40.77 40.23 40.86 41.95 41.04 41.33 44.39 46.93 46.99 47.71 48.88 49.90 50.60 51.07
53.51 53.59 56.89 57.20 54.97 54.48 52.96 55.35 55.97 52.50 44.14 44.17 42.89 46.50 46.77 47.99 44.99 47.76 49.97 48.04 43.29 42.30 41.73 42.31 43.86 41.61 40.56 40.16 41.98 38.86 42.40 41.44 39.73 39.31 36.89 40.33 35.30 42.30 44.98 45.48 46.19 48.30 49.87 50.25 50.54
52.81 52.94 53.14 55.26 54.02 52.23 53.51 56.00 56.05 51.51 33.79 43.10 41.95 49.35 45.78 45.75 44.57 44.25 48.14 46.89 42.77 41.44 42.63 41.14 39.74 39.67 39.78 41.15 42.43 40.62 41.23 40.60 39.41 39.32 37.67 38.73 35.59 40.53 41.74 42.25 45.03 47.63 49.38 50.74 51.65
50.93 52.26 52.63 55.04 55.72 55.41 56.08 56.05 53.64 39.16 31.87 40.48 42.36 42.13 41.86 42.83 41.82 44.08 45.14 47.11 45.55 41.97 41.25 40.90 42.19 42.79 42.82 40.27 42.11 41.37 40.81 39.75 39.33 38.88 33.09 38.75 36.92 38.72 41.83 43.16 45.22 47.16 48.65 49.98 50.65
49.70 51.16 50.80 51.77 52.10 55.61 55.14 52.56 37.36 32.08 41.72 39.15 38.86 40.80 39.99 39.61 40.09 41.62 40.79 40.27 39.57 35.96 36.62 38.96 39.77 41.43 42.04 39.78 40.81 41.03 39.97 33.60 32.03 31.12 31.76 35.72 34.77 39.10 43.37 44.40 45.05 46.74 48.32 48.78 48.31
48.36 50.11 49.61 50.10 53.02 54.84 52.50 43.06 32.20 38.62 39.88 40.67 40.38 39.36 37.58 39.35 38.98 39.13 39.38 38.32 41.01 38.70 36.57 34.84 32.96 39.40 42.31 42.25 39.94 38.81 40.11 34.51 28.32 28.80 33.65 32.06 32.01 39.55 44.66 45.84 45.39 46.32 47.25 47.75 46.66
48.28 47.83 47.23 49.80 51.43 53.59 47.61 33.68 35.07 38.43 41.27 39.83 40.12 37.53 37.25 38.69 38.75 37.81 38.24 39.19 41.61 40.94 36.10 34.45 34.08 39.03 39.81 41.84 43.26 37.92 35.04 41.50 35.23 27.47 30.25 35.94 39.46 43.18 43.82 43.15 44.48 45.26 47.22 47.90 48.19
45.26 44.47 43.53 50.06 52.62 51.30 41.56 35.60 38.32 42.33 41.82 41.35 37.50 40.45 37.06 38.70 36.65 36.61 36.37 40.42 39.49 42.41 44.38 39.05 33.81 37.26 38.59 41.62 40.81 39.97 42.21 34.48 35.00 28.97 27.13 33.93 35.52 37.20 41.87 44.07 46.05 44.74 45.91 47.42 48.17
43.52 37.92 43.33 48.80 52.35 44.73 35.03 36.29 40.08 43.67 43.59 41.04 39.65 38.79 38.97 37.48 38.52 35.71 37.08 40.22 40.44 39.97 43.42 42.04 37.54 34.90 37.90 36.99 37.27 37.27 36.60 36.79 37.04 34.64 30.51 29.63 35.09 43.86 43.50 44.98 44.15 45.68 45.41 47.28 47.85
41.10 31.40 43.67 49.07 39.40 40.65 35.95 38.76 40.98 41.80 44.32 42.74 42.67 41.31 39.37 38.94 37.89 38.40 37.93 40.03 42.34 42.03 37.72 41.79 37.95 33.94 36.27 39.33 40.48 41.02 39.66 38.92 33.45 30.67 33.07 32.83 35.12 42.09 44.49 45.17 44.44 45.35 45.16 46.72 46.68
36.87 36.67 43.54 46.64 31.55 33.99 36.38 36.96 39.23 38.82 40.64 41.11 40.18 42.03 42.20 39.04 35.63 39.36 40.50 42.77 41.55 41.72 39.70 41.09 36.18 31.88 33.93 35.84 36.28 35.57 38.29 38.75 39.26 34.86 33.24 30.85 34.75 43.17 43.42 43.66 44.85 44.55 46.49 46.53 45.90
36.84 30.56 36.15 38.73 40.19 34.23 32.94 33.10 33.61 39.33 39.19 40.00 39.60 41.61 39.73 37.74 39.74 36.84 37.90 41.18 41.83 41.23 41.93 42.54 37.43 34.77 32.52 36.55 38.09 33.44 36.04 38.00 37.65 32.27 33.25 34.67 37.54 42.37 43.83 43.65 44.84 45.64 46.81 46.96 46.80
36.78 32.68 34.88 29.90 32.36 34.01 34.31 33.19 31.59 31.88 38.21 39.11 36.11 36.69 37.47 34.29 36.52 36.53 38.58 37.82 39.48 41.25 41.47 40.82 33.63 36.44 38.31 39.48 37.65 36.69 36.51 36.79 35.29 37.31 34.05 37.12 38.11 41.65 43.99 44.88 45.95 47.06 47.18 47.30 46.51
33.43 33.53 33.60 32.71 33.17 32.28 32.53 31.88 31.57 32.94 33.61 32.54 32.96 36.04 36.34 33.69 34.96 33.20 35.72 36.77 36.69 38.58 36.35 39.54 32.47 35.71 33.60 38.02 37.67 35.46 37.30 36.77 37.02 37.85 38.42 39.00 38.85 45.30 46.19 47.02 46.50 45.87 45.98 45.83 46.72
39.50 38.87 35.93 32.57 32.20 29.90 30.69 31.32 31.50 34.56 35.80 37.34 36.53 34.78 33.48 35.45 38.49 39.41 38.29 37.27 37.05 35.44 36.22 36.45 33.92 31.85 29.08 35.59 35.19 30.97 35.00 37.46 38.21 39.63 39.83 35.58 40.89 44.99 44.36 45.00 45.62 46.31 46.11 45.35 46.84

GFSSW_sfc_wetblb_063.txt.gz
Wetbulb
59.19 59.02 58.97 58.94 59.06 59.30 59.32 59.44 59.70 60.02 60.28 60.68 60.98 61.64 61.71 61.24 60.58 60.17 53.77 56.96 58.98 62.54 59.76 55.35 55.31 55.17 55.66 53.89 53.51 53.56 48.25 45.99 47.31 47.18 47.65 50.64 49.77 50.85 52.37 51.23 52.22 54.24 53.20 56.62 61.09
58.66 58.68 58.55 58.51 58.72 58.99 59.16 59.27 59.23 59.41 59.86 60.13 60.53 61.09 61.70 60.98 58.81 55.33 58.80 61.29 62.12 61.96 55.14 53.19 51.80 53.40 52.01 52.66 53.07 51.20 48.06 47.60 50.03 50.05 49.02 49.99 50.16 50.73 49.44 50.04 50.69 51.91 53.59 56.76 61.63
58.25 58.07 57.85 57.85 58.14 58.43 58.67 58.85 59.08 59.20 59.49 59.80 60.23 61.12 61.06 59.99 54.67 53.61 60.54 61.09 61.13 58.95 55.88 54.73 53.43 52.46 49.75 51.39 50.95 50.71 47.87 49.07 48.70 49.50 50.05 49.87 49.13 50.89 49.30 48.73 51.16 51.20 52.96 54.40 60.05
57.83 57.51 57.34 57.20 57.38 57.95 58.30 58.60 58.84 58.96 59.20 59.56 60.08 60.75 60.07 58.66 44.63 55.12 60.26 61.43 60.56 57.37 55.10 53.02 51.75 49.46 48.35 47.37 49.75 46.16 47.75 48.22 49.45 50.12 49.13 48.74 50.50 49.02 49.72 51.17 52.87 53.98 54.46 54.07 58.17
57.73 57.21 56.98 56.88 57.18 57.82 58.16 58.39 58.61 58.68 58.82 59.08 60.16 60.49 58.25 51.53 51.55 57.49 59.44 59.64 56.27 55.03 52.78 51.65 49.83 49.47 46.70 48.12 48.08 46.63 47.28 47.94 49.49 49.11 49.24 48.78 48.63 49.32 50.24 52.68 52.81 52.13 52.10 53.65 56.12
57.80 57.27 57.07 57.11 57.40 57.82 58.11 58.27 58.42 58.41 58.44 58.85 60.09 59.80 54.18 46.23 57.02 56.95 54.99 54.77 55.00 54.17 52.35 51.89 50.10 50.93 48.61 48.10 47.46 48.66 48.18 48.23 49.06 49.13 49.02 47.50 48.78 48.36 50.68 53.04 52.66 51.65 51.61 52.90 53.99
57.55 56.93 56.66 56.47 56.99 57.36 57.45 57.83 58.19 58.23 58.22 58.83 60.18 57.14 50.72 49.48 57.63 56.34 54.74 54.52 54.66 54.11 51.96 52.93 52.53 51.26 50.52 47.80 49.66 48.53 46.09 47.55 48.03 48.55 47.95 48.81 46.19 46.62 50.72 50.94 50.79 51.46 51.78 52.71 53.28
57.90 57.34 57.10 57.15 57.18 57.21 57.34 57.44 57.82 58.03 58.32 59.06 59.83 55.48 47.68 55.06 58.87 54.64 54.83 53.86 54.69 54.93 54.08 53.75 54.31 52.10 50.67 50.66 48.52 46.28 46.52 43.22 47.73 47.73 48.23 48.02 43.01 49.22 50.60 50.68 49.98 51.07 52.02 52.50 53.05
57.88 57.48 57.35 57.30 57.07 57.14 57.36 57.86 57.93 57.98 58.30 59.03 54.92 51.98 46.39 56.39 53.82 56.05 54.40 52.31 53.19 53.33 53.04 52.75 53.18 50.58 49.44 46.92 44.71 45.98 41.51 43.20 45.06 47.86 47.29 46.62 45.39 49.62 49.73 49.10 49.09 50.54 51.41 52.06 52.87
58.09 57.63 57.54 57.42 57.29 57.23 57.72 57.90 57.87 57.67 57.29 55.61 53.66 47.69 48.12 48.07 53.46 53.89 53.86 53.09 51.53 51.72 50.69 50.48 49.63 47.16 47.02 45.01 38.95 41.72 41.92 43.03 43.01 45.84 45.50 45.38 45.21 48.35 50.25 49.90 49.60 50.94 51.77 52.28 52.26
56.55 57.64 58.14 57.86 57.60 57.74 57.91 54.64 52.51 51.43 51.37 48.94 46.40 45.24 46.86 52.06 53.68 52.53 52.68 51.27 51.22 50.10 46.28 47.97 44.73 42.12 44.56 46.05 45.64 43.88 42.85 42.30 44.34 45.66 44.02 44.58 44.96 46.84 49.10 49.47 49.42 50.09 50.60 50.98 52.03
54.71 55.88 56.78 58.43 58.03 57.65 57.86 55.47 51.67 51.77 49.44 53.11 51.16 48.20 50.13 52.57 47.85 50.78 52.35 49.04 48.05 44.58 46.29 44.23 41.76 46.28 46.39 46.25 44.50 43.75 42.12 42.09 44.88 45.43 43.07 44.14 43.79 46.86 48.19 48.73 49.61 49.91 50.37 51.12 52.10
53.65 54.59 56.87 58.35 57.62 57.64 56.89 53.79 56.80 55.45 49.87 50.30 51.04 50.61 49.79 50.57 48.94 49.32 50.80 49.59 46.08 43.97 43.78 41.62 43.69 45.91 44.62 43.36 42.31 42.87 41.75 41.98 41.94 43.72 44.58 43.05 42.22 44.76 47.85 49.23 49.96 50.43 51.42 51.46 52.06
53.16 53.21 53.79 57.40 54.55 56.44 55.21 56.62 57.59 54.38 45.39 46.76 46.30 48.33 48.82 50.19 47.14 49.55 52.11 49.07 45.55 43.07 44.07 43.44 45.98 43.31 42.59 41.58 43.10 39.45 44.78 43.45 42.21 40.52 37.24 43.28 36.09 42.81 45.46 46.25 48.32 49.69 50.68 51.09 52.25
50.96 52.25 52.52 55.17 54.73 53.34 54.89 56.39 56.90 53.64 33.67 46.35 43.91 50.98 47.51 47.51 46.69 45.90 50.09 47.71 44.26 43.63 43.98 41.79 42.10 41.63 40.79 41.87 44.34 41.75 43.76 42.57 42.05 40.66 40.13 40.33 37.01 41.14 44.96 43.99 46.21 48.50 50.32 51.69 52.83
49.90 50.77 51.85 55.22 56.28 55.98 56.57 56.30 54.89 39.84 31.37 40.83 44.20 43.58 43.50 44.68 43.46 45.59 46.24 48.72 46.97 44.64 43.94 43.58 44.48 44.80 44.09 42.82 44.39 44.45 43.04 42.45 42.11 40.68 33.50 39.29 38.46 39.25 42.57 44.28 46.43 48.59 50.10 51.36 52.00
48.96 49.75 50.71 51.64 52.19 56.54 56.64 52.59 36.84 31.55 43.16 41.22 40.21 42.56 43.11 41.80 42.19 43.49 41.74 41.20 41.24 37.15 38.24 41.65 41.39 43.66 44.13 40.85 42.66 43.10 40.53 34.08 32.89 32.75 32.25 39.20 37.58 40.50 44.51 46.20 47.22 47.51 49.12 50.70 51.38
47.94 49.23 50.93 50.11 54.80 55.45 53.22 45.53 31.55 38.90 41.54 43.09 42.42 41.77 39.47 41.88 41.68 41.76 41.79 40.25 43.41 42.90 39.45 37.31 35.09 40.97 43.44 42.74 40.67 40.10 40.57 35.01 28.68 30.96 34.52 35.43 33.67 39.95 46.76 48.25 48.28 48.29 49.01 50.06 50.55
47.72 48.48 48.50 51.25 51.70 53.90 46.55 34.89 36.07 39.51 43.64 41.75 41.96 39.46 39.04 40.47 41.05 40.39 40.42 41.45 43.93 43.73 37.77 38.05 36.66 42.85 43.32 44.35 44.07 39.74 36.56 42.89 36.53 34.03 31.65 36.20 40.22 44.23 46.43 45.21 46.76 47.49 48.26 48.99 50.51
45.38 44.65 44.00 51.23 52.57 51.26 42.21 36.23 39.35 43.80 43.50 43.87 38.71 41.96 38.74 39.77 38.61 39.08 39.76 43.15 41.87 44.66 45.51 41.55 35.38 39.79 41.03 42.88 43.02 41.20 43.27 34.92 35.83 29.52 27.37 33.91 36.23 37.98 43.43 44.90 46.63 47.00 47.89 49.21 50.56
44.47 38.82 45.07 49.46 52.84 45.19 35.67 37.58 40.87 44.69 44.79 41.74 40.12 39.73 40.49 39.99 40.96 39.32 40.16 42.72 43.41 42.48 44.95 42.87 39.22 36.22 39.50 38.23 38.54 38.33 36.95 38.13 38.56 36.15 30.56 29.73 35.15 44.42 44.28 45.77 46.06 47.74 48.53 49.10 50.05
42.50 33.29 46.62 51.04 40.29 40.84 36.15 39.93 42.12 42.53 45.07 43.69 43.46 42.14 40.44 40.74 39.76 40.07 38.78 41.82 44.74 43.89 39.65 43.00 39.66 35.07 37.13 42.44 43.13 42.49 39.68 39.36 33.58 31.93 34.95 33.37 34.92 46.04 46.21 46.20 47.09 46.83 48.48 49.43 49.74
37.89 38.09 45.74 46.82 33.18 36.00 38.65 38.34 41.13 39.58 40.94 41.49 40.29 42.18 43.30 40.14 36.55 40.61 41.16 45.96 44.36 43.42 41.05 42.30 36.36 31.72 34.43 39.22 39.35 37.27 40.14 40.34 40.28 36.78 33.32 31.10 34.33 45.53 46.89 46.61 47.20 47.09 48.60 49.36 49.44
38.39 31.72 38.11 40.90 41.49 36.33 35.29 35.15 35.22 41.18 40.26 41.96 40.99 42.77 40.57 38.85 41.19 38.06 38.80 42.35 43.94 42.59 42.09 42.24 37.28 35.50 32.98 37.19 40.37 35.49 37.64 40.10 38.54 32.97 33.84 34.59 37.50 42.47 44.62 45.64 47.25 47.79 47.98 48.91 50.02
38.69 33.19 37.56 31.29 33.48 36.05 36.14 35.42 33.42 33.22 39.04 40.42 38.14 38.79 38.44 35.07 36.46 36.63 39.73 40.44 41.98 41.61 41.09 39.07 33.06 36.43 37.98 39.27 39.37 38.61 38.64 38.76 36.75 38.28 34.38 37.31 38.31 42.20 44.44 45.74 47.15 49.00 49.19 48.70 48.61
34.34 34.78 37.00 35.28 36.20 34.00 33.51 32.41 32.29 34.30 35.69 34.23 34.53 37.17 38.08 34.97 36.34 34.09 38.09 38.12 36.79 40.20 39.04 37.90 32.19 34.13 31.07 35.22 35.68 33.36 36.55 39.07 39.32 38.75 38.58 39.23 39.01 45.86 47.00 47.89 47.52 48.08 48.30 47.97 48.49
40.71 40.06 37.61 33.59 32.76 32.99 31.40 32.84 33.16 35.44 36.98 37.92 36.85 35.78 35.01 37.14 40.15 40.65 39.64 38.81 38.03 35.73 34.89 35.99 34.40 31.43 27.05 33.52 33.86 30.49 34.90 36.89 38.93 41.15 40.29 35.47 41.15 45.60 45.22 45.92 46.89 47.85 48.52 48.19 48.51

GFSSW_sfc_wetblb_069.txt.gz
Wetbulb
59.22 58.98 59.05 59.21 59.33 59.49 59.44 59.41 59.38 59.48 59.80 60.10 60.32 60.87 61.20 61.26 60.79 58.48 54.45 56.50 58.32 61.61 59.48 52.60 51.10 50.34 50.55 48.95 48.09 45.46 39.39 36.68 39.03 40.07 41.24 44.45 42.73 44.84 45.11 46.33 45.23 47.86 47.63 50.70 57.89
59.06 58.77 58.71 58.81 58.74 58.98 58.94 58.96 58.96 59.18 59.49 59.81 60.10 60.35 60.89 60.61 57.60 54.92 58.81 62.38 62.27 60.77 52.76 48.82 46.97 48.73 45.60 46.65 46.65 42.34 37.52 39.36 42.04 41.04 41.99 44.18 43.67 44.30 42.89 42.84 42.27 44.02 46.56 54.48 59.20
58.58 58.31 58.10 57.98 58.21 58.45 58.58 58.74 58.98 59.05 59.24 59.47 59.82 60.36 60.45 58.76 53.19 51.92 61.14 62.14 62.01 59.09 53.07 51.65 49.17 47.66 43.83 44.84 43.46 42.35 39.76 42.08 43.27 44.94 44.96 44.32 42.30 44.43 42.86 40.05 43.87 45.47 46.86 55.40 56.85
58.05 57.65 57.28 57.04 57.33 57.79 58.22 58.42 58.73 58.77 58.75 59.08 59.62 60.30 59.91 56.56 41.35 52.81 60.57 61.16 61.14 54.00 52.47 49.80 46.51 42.95 41.19 41.01 44.67 39.04 42.67 43.55 46.04 46.38 44.67 42.89 44.85 42.26 43.11 43.39 45.91 46.74 48.85 54.65 55.24
57.79 57.30 56.86 56.70 57.02 57.68 58.13 58.26 58.48 58.67 58.71 58.83 59.82 60.13 55.75 48.91 49.75 54.67 58.66 57.96 53.02 52.03 49.43 47.74 44.31 42.66 40.06 41.70 42.84 39.51 41.34 44.01 45.30 44.47 42.83 44.74 41.96 42.59 42.79 45.34 45.27 47.92 49.48 54.06 55.24
57.83 57.29 56.94 56.68 56.96 57.27 57.40 57.59 57.80 58.17 58.49 58.73 59.82 59.83 50.71 43.55 55.20 54.19 52.47 52.33 52.20 50.34 47.64 47.22 45.30 45.69 42.66 42.19 40.70 42.73 42.94 42.54 44.24 43.77 43.51 42.10 41.14 41.57 44.48 45.29 44.15 46.09 46.58 49.46 53.18
57.89 57.18 56.66 56.38 56.40 56.97 57.27 57.54 57.60 57.83 58.11 58.57 59.58 56.80 47.92 46.20 54.39 52.57 52.80 51.57 51.61 50.90 48.20 49.18 47.86 45.28 43.72 41.85 45.02 43.38 38.85 40.44 41.96 43.10 42.00 42.97 38.51 41.19 43.53 44.36 44.48 44.13 43.43 46.05 49.25
57.52 56.81 56.61 56.81 57.00 56.86 57.17 57.55 57.98 58.22 58.34 58.56 59.47 52.50 44.69 53.54 53.18 52.29 51.96 50.71 51.30 51.37 50.26 49.74 49.36 47.94 45.52 44.78 43.19 38.87 38.28 33.79 40.28 42.63 42.39 40.50 33.67 41.24 43.43 42.97 43.78 43.04 42.23 43.49 45.44
57.32 56.90 56.91 57.01 56.86 57.01 57.48 58.02 57.96 58.26 58.29 58.59 51.59 46.64 42.69 55.04 51.79 52.60 50.49 49.49 49.95 49.66 48.61 51.02 48.92 44.51 43.19 38.56 36.02 35.89 30.89 33.10 37.63 42.56 41.94 39.34 35.40 42.47 43.99 42.17 40.91 41.78 42.90 43.33 43.68
57.37 57.15 57.19 57.19 57.07 57.29 58.01 58.51 57.94 56.47 57.13 56.22 51.90 41.20 44.37 45.81 51.19 51.33 49.49 50.63 48.26 47.36 46.39 45.81 43.08 39.54 38.26 35.44 30.46 31.88 31.90 34.90 34.10 39.96 39.96 37.58 37.60 41.04 43.45 43.04 43.00 42.45 42.82 43.09 43.50
56.97 57.60 57.81 57.64 57.71 58.18 56.00 53.06 48.01 46.12 47.92 43.84 43.79 42.55 46.78 49.42 51.64 49.74 50.05 48.09 47.60 44.82 38.92 41.66 36.52 33.52 36.84 37.76 38.23 36.86 34.51 32.77 35.42 40.38 38.54 37.50 37.42 39.92 42.15 40.58 39.76 40.61 41.57 42.47 44.05
55.02 55.68 57.16 58.07 58.28 58.13 54.47 50.68 47.58 48.39 45.19 48.97 48.51 45.71 48.91 49.86 45.38 47.59 49.12 44.12 43.03 38.32 40.33 37.40 33.86 39.86 41.04 41.13 39.12 36.52 33.77 32.96 36.52 39.51 37.28 36.92 37.41 39.81 40.41 42.08 42.62 42.91 40.79 41.84 42.38
53.26 53.96 55.01 58.14 58.13 56.04 53.75 50.86 54.54 51.85 44.36 47.48 48.97 48.29 46.48 47.86 44.79 45.12 47.35 44.41 40.80 38.54 38.68 35.28 38.66 42.15 41.62 38.12 37.88 35.54 33.60 33.26 34.82 36.50 36.05 33.76 32.62 35.82 40.04 40.84 42.15 42.25 42.83 42.96 43.69
51.21 52.01 53.31 55.98 54.48 54.54 52.81 55.44 54.96 52.54 38.70 42.79 44.60 46.67 46.99 47.13 43.26 47.60 47.50 44.58 39.90 38.95 38.65 37.62 41.18 40.13 37.80 37.38 38.48 33.74 37.64 37.96 36.45 33.07 28.71 35.06 25.75 33.16 38.68 40.12 39.35 41.65 41.30 42.44 42.70
49.46 50.71 51.94 54.66 53.15 52.29 53.25 55.26 53.92 50.33 25.09 42.61 43.21 49.46 45.76 44.40 43.66 43.51 46.17 43.60 38.57 38.84 38.01 35.82 36.84 36.68 36.13 37.87 39.39 36.21 39.30 37.05 35.80 32.37 30.55 30.12 26.90 31.89 34.83 35.38 38.55 39.77 40.41 41.63 42.83
48.63 49.28 51.29 54.67 55.38 55.16 55.50 54.91 52.19 36.51 24.37 37.94 41.97 41.19 41.84 42.17 41.43 42.80 42.76 44.02 42.94 39.21 38.20 37.17 39.89 39.23 38.96 38.98 39.22 40.83 38.40 37.59 34.96 32.04 24.25 30.84 30.12 27.91 33.50 36.29 36.69 38.80 40.70 42.36 43.11
48.59 48.78 48.90 50.97 51.25 56.08 55.51 51.00 36.34 27.97 39.82 37.19 37.52 40.20 40.05 38.99 39.48 40.28 38.29 36.91 36.02 32.27 31.89 35.83 36.33 38.48 40.31 36.69 39.35 37.54 33.29 25.01 24.01 23.15 23.10 29.79 27.43 32.15 36.97 39.11 38.94 39.52 39.41 39.86 42.86
48.41 48.94 50.12 50.58 52.70 55.24 52.75 42.04 30.73 35.66 37.71 41.15 40.13 39.89 37.33 39.84 38.44 39.04 37.10 34.31 37.83 36.26 32.64 32.16 30.15 36.66 39.49 37.87 35.69 35.14 33.43 25.67 20.40 21.73 24.30 28.93 26.53 33.99 38.79 40.19 39.80 40.25 41.32 40.43 40.40
48.38 44.12 45.06 50.66 52.43 53.90 46.00 31.86 33.85 36.67 41.57 39.34 38.23 35.41 35.76 37.68 37.58 36.82 35.31 35.01 37.93 38.23 34.18 31.79 32.53 37.14 38.66 39.51 39.90 34.35 31.97 35.96 28.87 18.35 21.80 27.16 31.20 37.10 39.67 39.40 41.41 40.57 40.98 41.99 43.29
40.92 40.90 41.11 50.64 52.28 50.58 41.01 34.79 36.88 42.95 42.96 42.70 35.69 37.83 32.96 35.32 34.80 34.95 34.70 37.92 38.54 40.13 40.20 36.62 30.26 35.05 35.88 37.96 37.18 36.12 38.15 29.82 28.48 18.64 17.49 23.99 26.67 31.22 35.31 37.33 40.38 41.20 40.74 41.13 41.83
39.68 33.84 42.84 46.69 51.05 45.13 35.30 35.85 40.28 43.16 43.42 41.25 38.84 38.57 37.41 36.03 36.61 35.40 36.35 36.91 39.69 38.53 41.95 38.73 34.34 30.96 34.41 33.08 33.05 32.83 31.39 32.77 33.08 28.67 22.16 19.50 26.72 35.10 36.87 39.55 38.60 39.75 41.71 41.59 42.79
37.16 27.92 42.54 47.46 40.17 40.52 36.30 38.97 41.21 41.00 43.10 42.07 41.85 40.00 38.26 39.22 36.85 37.09 36.81 36.75 40.41 40.20 36.24 39.00 35.21 26.66 31.18 35.19 36.24 34.60 33.44 33.69 26.88 25.18 26.54 25.60 30.55 37.86 38.37 38.80 40.11 40.27 41.74 42.01 42.67
32.96 32.28 42.32 46.08 32.64 34.42 37.54 38.25 39.73 38.97 40.24 40.51 38.89 40.36 40.29 38.00 35.15 38.30 38.79 41.88 41.36 39.97 37.99 38.76 31.87 21.07 27.62 32.93 34.81 31.46 33.77 34.75 33.69 28.41 25.23 21.74 29.65 39.21 39.04 40.04 41.02 40.04 40.80 41.10 41.77
33.69 26.72 33.49 37.48 37.72 32.62 33.33 34.07 34.89 39.52 38.98 40.01 38.99 39.69 37.24 35.30 38.57 36.01 37.96 40.44 41.09 40.59 42.60 41.66 34.69 28.38 24.69 30.58 35.23 31.93 34.19 36.20 35.14 24.17 28.03 29.64 32.61 37.83 38.26 39.91 41.75 40.58 40.57 40.94 42.16
35.75 28.33 31.83 24.99 29.11 34.06 33.19 33.82 32.89 32.20 37.70 38.91 36.35 36.56 36.18 32.72 33.90 34.21 37.57 38.06 39.33 41.31 38.96 39.01 32.65 34.36 33.86 34.49 35.96 36.44 35.52 35.74 34.33 35.15 31.37 32.99 33.66 37.76 40.13 41.03 41.92 40.69 42.24 42.26 42.14
34.47 29.15 31.42 29.64 30.57 30.91 31.50 30.31 31.20 33.74 35.13 33.62 33.14 35.86 36.82 34.43 34.85 31.50 35.20 36.18 35.11 37.88 36.36 37.58 29.46 32.82 29.57 33.74 34.41 30.58 32.82 33.41 33.85 34.74 35.25 35.10 34.96 40.97 42.45 43.11 42.08 42.04 42.01 42.38 43.26
35.56 39.66 35.18 29.91 28.81 27.79 27.40 29.99 30.27 33.28 34.72 36.93 36.00 34.06 32.83 34.86 37.37 37.51 37.53 37.49 36.66 35.70 34.09 33.50 31.11 28.71 16.60 27.95 27.87 21.64 28.72 30.89 32.26 33.78 34.46 30.68 35.57 39.49 39.06 40.52 40.14 40.18 39.67 39.12 40.11

GFSSW_sfc_wetblb_072.txt.gz
Wetbulb
58.53 59.36 59.62 59.56 59.36 59.47 59.58 59.44 59.28 59.19 59.55 59.56 59.76 60.44 60.64 60.74 60.70 57.31 52.69 55.59 57.92 61.85 59.37 51.02 49.37 49.07 49.95 48.72 47.82 44.43 39.21 35.71 36.56 38.50 40.00 42.51 42.49 42.94 44.44 44.55 44.13 45.60 47.66 50.13 57.82
59.20 59.27 59.36 59.32 59.33 59.25 58.90 58.53 58.88 59.14 59.25 59.32 59.68 60.02 60.41 60.11 56.15 53.70 58.69 62.20 62.14 60.78 51.48 47.73 45.58 47.65 45.35 45.77 45.32 41.09 36.89 38.47 40.23 39.61 39.81 42.48 41.99 44.06 42.44 41.76 44.33 44.47 48.71 54.18 58.38
58.91 58.82 58.67 58.67 58.55 58.51 58.54 58.47 58.59 58.73 58.78 59.00 59.48 60.09 60.00 58.42 51.70 50.99 60.53 61.98 61.89 58.54 51.96 50.45 47.51 46.75 42.70 43.18 42.60 41.01 38.32 41.03 41.81 42.88 43.62 42.71 40.57 42.41 41.63 39.20 43.28 44.79 47.78 54.72 56.83
58.57 58.17 57.76 57.37 57.72 57.86 58.02 58.06 58.27 58.37 58.44 58.87 59.45 59.96 59.61 55.66 38.98 52.03 59.48 61.02 61.01 52.93 51.06 47.89 45.17 42.61 40.24 40.56 43.33 38.92 41.06 42.13 44.16 44.45 42.82 42.07 42.38 40.33 41.45 42.71 45.14 45.59 50.98 55.67 57.47
58.20 57.79 57.27 57.05 57.11 57.59 57.81 57.87 58.06 58.26 58.39 58.80 59.62 59.94 55.42 47.10 48.70 53.74 58.65 57.80 51.95 50.85 48.20 46.21 43.92 42.41 39.31 40.75 41.71 39.41 39.76 43.07 43.41 42.92 41.87 43.09 40.16 40.92 41.48 43.86 44.04 45.55 52.27 55.29 57.33
57.82 57.39 57.09 56.77 56.74 57.08 57.15 57.43 57.47 57.75 58.07 58.47 59.65 59.49 49.69 42.03 54.36 53.40 51.82 51.54 51.17 48.86 46.90 45.90 44.28 44.44 42.06 41.38 39.63 41.50 41.23 41.21 42.29 41.73 41.72 40.37 38.90 40.40 42.46 42.62 42.55 44.91 49.40 53.59 55.25
57.88 57.41 57.03 56.42 56.35 56.84 56.98 57.28 57.44 57.78 57.88 58.22 59.24 55.61 46.50 45.31 53.30 51.54 51.62 50.89 50.61 49.52 47.10 47.14 46.47 43.56 42.45 41.24 43.51 42.16 37.60 38.78 39.73 40.87 40.40 40.79 36.20 39.58 41.51 42.15 41.85 42.74 43.99 48.78 52.39
57.76 56.95 56.44 56.48 56.86 56.89 57.03 57.37 57.93 58.27 58.51 58.21 58.99 50.94 43.54 52.51 52.61 51.16 51.20 49.75 50.69 50.54 49.45 48.51 48.36 46.83 43.44 43.61 41.81 37.43 36.82 31.94 37.52 41.09 40.81 37.64 33.06 38.10 41.39 38.42 41.89 40.73 39.99 42.47 46.29
57.18 56.68 56.66 56.75 56.70 56.89 57.28 58.00 58.02 58.44 58.29 58.56 51.35 45.64 42.25 54.60 50.00 51.69 49.99 48.55 48.86 48.33 48.11 50.46 47.97 42.73 42.37 37.59 34.85 35.33 29.55 31.66 35.85 41.01 40.06 37.28 34.41 39.90 41.16 41.24 40.28 40.19 40.77 41.16 42.30
57.23 57.02 56.98 56.98 56.89 57.17 57.94 58.63 58.02 56.67 56.31 55.32 50.64 40.79 44.00 44.72 50.16 50.26 48.79 49.64 47.01 46.12 45.60 45.00 41.44 38.17 36.57 34.41 28.85 31.58 31.59 32.82 31.46 38.17 37.57 35.30 36.59 40.08 41.66 40.02 41.08 40.70 40.88 40.98 41.58
57.39 57.41 57.35 57.33 57.48 58.12 55.64 50.80 46.03 44.88 46.81 41.44 42.84 42.06 45.79 48.79 51.17 48.78 49.21 47.39 46.83 43.89 37.85 40.43 35.64 33.77 36.45 36.59 36.11 35.33 33.52 32.38 34.18 38.54 37.28 36.43 36.05 38.62 40.96 39.62 38.76 39.28 39.50 40.54 41.46
55.60 56.15 57.28 57.94 58.21 58.29 53.92 48.46 45.38 46.47 42.28 47.77 44.92 45.44 48.26 49.46 45.05 46.81 48.39 43.08 41.63 37.10 39.08 37.04 33.16 37.90 39.10 38.22 36.79 34.81 32.89 31.92 34.70 37.81 36.33 34.84 36.10 38.25 39.00 40.03 40.28 40.37 39.62 39.88 40.65
52.89 54.03 55.83 57.88 58.13 55.23 52.38 50.09 53.95 51.02 43.39 46.40 48.07 45.17 45.06 47.74 42.88 44.33 46.39 43.19 39.57 37.56 37.19 34.34 37.04 40.18 40.02 37.36 36.76 34.03 32.89 32.17 33.20 34.48 33.79 32.63 31.33 33.73 37.67 38.55 40.37 40.78 40.86 40.46 40.87
50.63 52.02 53.86 56.26 54.22 53.21 50.88 54.86 54.17 51.76 36.48 40.60 44.21 46.14 45.81 45.58 41.87 46.62 46.38 43.64 39.01 37.83 37.58 36.55 39.74 38.56 36.62 36.19 36.83 32.83 36.50 35.57 34.16 31.78 27.77 32.56 24.72 31.21 36.08 38.14 38.58 39.53 37.06 38.88 40.22
48.98 50.48 52.52 56.35 52.83 51.70 53.01 54.61 53.05 48.07 21.94 40.14 42.95 48.23 45.07 42.79 42.59 42.87 45.43 42.92 38.18 37.86 37.56 35.41 35.94 35.68 34.88 36.49 37.73 35.00 37.31 34.87 33.91 30.66 28.52 28.38 26.41 30.16 32.60 35.40 37.23 38.49 38.22 40.99 41.98
48.17 49.04 51.32 54.21 54.95 54.29 55.01 53.74 50.51 34.35 23.08 37.09 41.21 40.50 40.89 40.86 40.67 41.88 41.90 43.44 41.84 38.50 36.43 35.92 38.79 38.21 37.93 37.44 37.35 39.31 36.68 34.58 32.45 29.70 23.48 28.55 27.96 27.20 31.64 34.55 35.62 38.58 40.47 40.62 41.90
48.37 48.98 49.49 51.37 50.85 55.28 55.04 49.85 35.57 22.83 36.93 35.67 36.96 39.91 39.58 37.66 38.42 38.84 37.48 36.59 34.72 31.23 30.82 34.42 34.95 37.09 38.73 36.09 37.86 35.54 31.69 24.03 22.80 21.71 22.08 27.15 25.75 29.69 35.54 36.84 36.93 38.93 39.10 39.94 40.12
48.95 49.09 49.90 50.36 52.42 54.73 52.21 42.76 28.78 32.51 35.90 39.46 39.21 38.61 37.21 38.78 37.59 37.65 35.50 33.69 36.52 34.55 30.60 30.27 28.72 36.03 38.68 36.94 34.96 33.45 31.79 24.88 19.28 19.44 22.36 27.45 25.36 32.34 36.50 38.60 39.54 38.56 39.67 39.35 40.95
47.97 44.19 45.31 50.91 51.58 53.18 43.72 34.09 31.53 36.15 40.23 38.02 38.04 35.13 34.55 37.42 37.17 36.26 34.87 34.43 37.32 37.53 33.70 30.72 31.05 35.77 37.07 37.56 38.78 33.46 30.23 34.07 27.37 16.61 20.99 26.25 29.53 36.21 38.44 36.55 38.36 39.93 40.48 41.40 42.00
40.48 39.73 41.91 50.97 51.76 50.41 39.76 33.39 36.67 41.59 42.16 39.96 35.27 36.89 32.22 33.95 34.15 34.34 33.83 36.88 37.26 39.17 39.20 36.28 29.61 33.73 35.11 37.40 36.71 34.81 37.29 29.49 27.22 17.67 15.89 23.28 24.93 29.98 34.29 37.00 38.74 38.94 40.06 41.12 42.49
38.77 32.22 41.36 46.85 50.72 45.29 33.83 34.95 39.17 42.98 43.90 40.71 37.68 37.06 35.03 33.76 34.29 34.19 34.63 34.97 38.19 37.70 39.45 36.56 33.75 29.88 33.56 32.52 32.62 32.85 31.14 31.39 31.73 27.08 21.16 17.98 25.74 33.58 35.17 37.52 37.40 38.11 39.48 39.46 40.75
35.77 27.70 41.45 46.68 40.60 40.96 36.23 38.72 41.60 41.40 42.96 42.00 41.69 40.47 39.02 37.84 35.17 35.16 34.52 35.74 39.85 39.17 36.22 38.18 33.41 26.53 30.22 33.16 34.66 32.91 32.84 32.51 26.18 24.02 24.69 25.14 26.88 36.91 36.92 37.29 38.41 38.48 39.92 39.87 39.94
32.08 31.65 41.94 46.01 34.92 35.74 38.45 38.69 39.78 39.56 40.30 40.19 39.29 40.82 41.47 38.88 35.85 38.54 38.55 41.46 40.88 40.20 37.90 39.04 32.45 23.31 28.13 32.20 33.63 30.34 32.69 33.01 31.50 27.85 24.39 21.60 27.04 36.53 36.75 38.65 39.36 39.78 39.23 39.75 40.59
32.39 27.00 32.88 37.72 38.32 34.94 35.05 35.15 35.19 39.90 39.55 40.63 39.42 40.40 37.85 36.69 39.03 37.17 37.67 41.35 41.81 41.26 42.34 41.55 33.80 29.59 26.13 29.67 33.86 30.77 31.87 34.72 32.24 23.92 27.38 28.42 31.73 34.93 37.10 39.06 41.24 41.50 40.09 39.28 40.57
33.57 27.92 30.72 24.73 31.21 32.68 33.67 35.10 33.69 33.29 38.06 38.65 35.12 37.42 36.68 33.07 34.48 34.74 37.71 38.01 39.75 40.91 39.97 39.00 28.56 32.13 33.93 34.08 34.36 33.95 33.13 34.01 32.59 32.67 29.15 30.43 32.45 35.50 38.29 38.91 39.84 39.44 40.21 40.03 39.98
33.41 28.33 29.94 28.65 30.34 32.51 32.47 30.92 32.63 34.28 35.14 33.79 33.60 35.96 36.40 34.49 34.69 32.63 36.73 36.40 35.60 37.90 37.08 37.16 30.55 32.17 28.17 32.47 33.64 30.02 32.06 32.70 33.37 33.33 34.00 33.89 33.39 39.27 39.48 38.48 38.26 38.25 38.51 38.08 38.47
33.83 39.36 32.74 29.15 27.96 30.09 29.92 30.26 30.69 34.37 34.67 36.91 36.08 34.25 33.55 35.30 37.38 37.14 36.64 37.04 37.53 35.72 34.13 34.17 30.96 26.33 19.51 27.67 26.98 19.86 27.60 31.39 31.14 32.07 33.96 30.04 34.45 36.22 35.55 36.71 36.00 36.28 36.73 36.94 37.79

GFSSW_sfc_wetblb_075.txt.gz
Wetbulb
58.68 59.23 59.84 60.16 60.12 60.10 59.89 59.71 59.50 59.46 59.76 59.82 59.85 60.09 60.24 60.43 60.46 56.54 50.40 53.88 56.31 61.75 59.14 49.42 48.26 47.91 47.75 46.48 45.36 42.68 38.55 36.27 36.92 37.91 38.94 41.23 40.58 41.27 42.43 43.30 44.32 44.71 48.97 49.85 59.30
58.95 59.35 59.67 59.80 59.72 59.52 59.57 59.19 59.14 59.06 59.36 59.26 59.43 59.53 60.15 60.02 55.39 51.88 58.67 61.94 62.06 61.07 49.78 46.60 45.94 46.59 44.71 44.18 43.78 40.68 37.69 39.29 40.50 39.45 39.64 41.71 40.10 42.79 42.46 41.11 43.27 43.98 48.34 52.90 59.10
59.30 59.20 59.27 59.28 59.17 58.95 58.73 58.75 58.82 58.84 58.82 58.89 59.03 59.79 59.81 57.91 49.53 49.20 60.60 61.91 61.73 58.17 51.00 48.88 46.98 45.70 42.32 42.25 41.58 39.81 39.31 40.32 41.11 41.54 41.79 42.41 39.64 40.84 40.99 40.28 42.73 44.08 47.52 54.04 56.59
59.17 58.88 58.59 58.54 58.58 58.74 58.59 58.30 58.35 58.25 58.30 58.56 59.05 59.57 59.54 55.31 38.15 51.38 59.63 61.03 61.02 51.78 49.81 47.66 44.87 41.77 40.86 40.58 42.36 38.84 40.67 40.94 43.70 43.02 42.41 41.20 41.20 39.36 40.03 42.26 42.84 45.39 49.87 54.49 57.24
58.63 58.37 57.81 57.43 57.55 58.00 58.23 58.15 58.13 58.08 58.31 58.55 59.24 59.54 54.96 46.53 47.66 52.91 58.55 57.12 50.81 49.80 47.59 45.12 43.01 41.08 39.35 40.39 40.51 38.03 39.30 42.13 42.58 41.69 40.54 42.01 39.34 39.68 40.48 42.94 42.78 43.60 52.48 54.61 57.44
58.12 57.80 57.52 57.11 57.28 57.63 57.46 57.36 57.47 57.70 57.81 58.34 59.35 59.32 48.99 40.85 53.79 52.88 50.84 50.90 50.49 47.95 46.23 45.51 43.54 43.24 40.92 39.68 39.26 39.59 40.49 40.67 41.43 40.70 40.54 39.24 37.52 41.10 39.11 41.18 40.12 43.04 49.63 53.17 55.51
57.83 57.41 57.19 57.04 56.97 56.97 57.19 57.20 57.31 57.56 58.00 58.29 59.01 54.74 45.87 44.10 52.62 50.77 50.91 50.02 49.86 48.66 46.17 46.87 46.18 42.25 41.75 40.62 42.19 41.14 37.42 37.77 38.97 40.02 39.21 40.10 35.25 38.20 40.25 39.21 40.10 41.17 42.44 49.96 53.09
57.70 57.20 57.00 56.62 56.60 56.93 56.87 57.02 57.74 58.11 58.46 58.42 58.86 49.81 41.65 51.53 52.08 50.31 50.35 49.00 49.31 49.50 48.62 47.62 47.72 45.88 42.02 41.88 40.47 37.00 34.61 31.64 35.87 39.62 39.27 36.92 32.35 36.94 39.70 38.91 39.37 39.38 39.27 41.72 47.47
57.25 56.71 56.49 56.57 56.78 56.78 56.89 57.57 57.99 58.09 58.13 58.39 50.49 44.46 40.61 54.29 48.98 50.45 49.14 47.90 48.29 47.79 47.89 49.84 46.86 42.01 40.62 36.14 32.82 33.83 28.68 30.03 34.99 39.74 38.66 36.14 33.97 38.13 39.62 39.53 39.48 38.58 39.51 40.30 41.16
56.90 56.65 56.71 56.93 56.84 56.84 57.56 58.28 57.96 56.72 55.66 54.62 49.52 39.63 44.03 45.00 49.95 49.40 48.22 48.97 46.08 45.80 45.35 44.31 40.62 37.24 35.52 33.52 28.40 29.89 29.00 30.87 31.02 36.43 36.92 34.04 36.12 38.82 40.55 38.88 39.48 39.10 39.49 39.33 39.96
57.11 57.02 57.16 57.07 57.09 57.62 55.53 50.10 44.47 43.64 46.83 41.44 41.61 41.34 44.11 48.54 50.44 47.27 48.35 46.86 45.65 42.18 37.09 39.08 35.54 32.83 35.76 34.94 33.69 33.81 32.55 31.13 33.35 37.38 35.88 35.45 34.90 38.28 39.99 37.99 38.08 38.68 38.52 39.20 40.23
57.01 57.40 57.68 57.79 57.98 58.05 53.39 46.09 43.17 44.93 40.22 47.25 44.01 45.33 47.41 48.63 44.23 45.71 47.93 42.79 41.14 36.20 38.33 36.63 33.14 37.22 37.98 37.15 36.25 34.11 31.87 31.06 33.87 37.06 36.05 34.35 35.37 37.50 38.18 39.30 38.96 39.26 39.11 38.72 38.65
53.60 54.79 56.76 57.49 58.03 55.05 51.24 48.90 53.27 50.32 41.91 44.93 47.11 43.66 44.91 46.71 42.21 43.89 45.47 42.35 38.32 36.99 35.55 33.59 35.70 38.90 38.39 35.08 35.04 32.40 31.86 31.41 32.26 33.35 32.92 31.62 31.15 32.49 35.66 36.67 38.99 38.55 38.50 38.82 39.31
50.79 52.24 54.34 56.66 53.84 52.91 49.95 53.70 53.61 50.92 34.94 39.06 43.56 46.29 45.26 45.65 41.51 46.29 45.48 42.60 37.87 36.58 36.70 34.91 37.79 36.97 35.46 35.10 35.67 31.79 36.08 35.38 33.21 30.22 26.56 30.54 24.75 30.90 34.00 35.92 36.70 37.39 35.82 37.68 38.86
49.74 50.27 51.94 56.11 52.09 51.01 52.24 53.64 52.18 45.41 21.46 38.97 42.80 47.74 44.49 40.66 41.43 42.05 45.26 42.29 37.65 37.27 37.22 34.03 35.90 34.99 33.94 35.78 36.74 34.08 36.41 33.66 32.23 29.53 28.04 27.44 25.92 30.34 31.47 33.30 35.20 37.52 37.96 38.57 39.35
49.18 49.80 51.12 54.43 54.34 53.98 54.34 52.63 49.07 33.93 21.41 37.18 40.68 40.33 40.15 40.20 39.95 41.74 41.66 43.40 41.14 38.03 36.15 34.80 37.46 36.74 36.69 36.53 36.03 37.89 34.93 32.60 30.77 28.08 22.88 26.75 25.69 27.16 30.15 32.25 34.24 36.04 37.96 39.21 39.94
48.96 49.26 50.67 52.47 50.70 54.43 54.17 49.23 34.09 20.51 35.11 34.71 36.50 39.15 38.37 36.85 37.62 37.98 37.15 36.15 34.22 30.49 29.81 33.13 33.71 35.89 37.55 35.23 36.49 33.60 30.63 23.77 22.45 20.79 21.27 25.94 24.89 29.21 32.35 34.95 34.83 36.25 39.14 39.58 39.98
49.09 48.52 49.79 51.36 52.89 53.71 51.50 42.11 27.39 30.73 33.27 38.00 38.17 38.79 36.34 37.78 36.28 36.30 34.61 33.09 34.91 32.87 29.70 29.22 27.80 35.40 37.89 36.10 34.24 32.21 30.92 24.23 18.42 17.85 21.92 26.87 24.80 31.20 35.62 36.69 36.68 38.59 39.06 39.23 39.76
47.37 44.26 46.33 50.79 52.00 52.96 46.76 33.85 31.29 34.04 39.00 36.98 37.22 34.83 34.75 37.10 36.06 35.06 33.40 32.78 35.64 35.73 31.22 28.92 29.25 35.04 35.91 36.46 37.50 32.80 28.68 32.21 25.37 14.49 19.83 24.60 27.83 34.78 35.50 36.41 37.63 38.66 39.05 38.86 39.93
41.65 40.85 42.60 49.60 51.86 49.92 41.58 33.47 36.35 40.04 40.69 38.90 34.57 36.36 32.05 34.33 34.64 34.24 33.26 36.75 36.63 38.28 37.87 35.27 29.57 32.95 34.40 36.33 35.27 33.97 36.27 28.44 25.74 16.71 14.87 21.82 23.64 29.09 32.68 34.65 36.73 37.15 37.59 38.74 40.07
38.87 33.59 40.63 47.58 51.09 44.77 32.42 34.09 37.70 41.96 41.41 38.88 36.38 35.14 34.03 33.07 33.71 32.76 34.38 35.39 37.17 37.09 38.57 35.74 33.90 29.48 33.35 32.06 31.82 32.20 30.61 30.42 30.84 26.69 20.85 17.20 24.74 31.93 34.88 36.23 36.61 37.26 38.40 38.82 39.41
35.38 26.86 41.05 47.28 40.31 40.90 34.73 38.52 41.98 41.73 42.96 41.32 40.62 39.90 35.20 34.85 33.27 33.39 32.98 33.82 39.13 37.92 35.15 36.61 33.13 27.15 29.67 32.85 33.81 32.06 32.21 31.48 26.60 23.37 23.86 24.75 25.92 36.03 36.52 36.57 37.71 37.15 38.11 38.69 38.76
31.65 30.75 41.13 45.72 33.79 35.32 38.69 38.75 40.46 40.42 40.48 40.25 38.83 40.23 40.57 38.27 34.47 37.74 36.98 40.35 40.41 38.55 37.17 37.89 31.40 24.20 29.25 30.94 32.18 29.98 31.17 31.87 30.41 27.46 22.68 22.20 25.02 35.83 35.23 36.88 38.16 38.12 37.84 37.87 38.89
32.68 26.79 31.96 38.01 38.47 35.83 36.30 36.54 36.39 40.82 40.84 41.37 40.11 40.63 38.56 37.62 38.94 37.10 37.53 40.65 41.14 40.81 42.27 41.00 33.54 30.69 27.92 28.89 32.55 31.10 33.39 33.75 31.52 24.62 25.71 26.97 28.69 31.37 33.98 36.85 37.96 37.08 37.64 38.14 38.67
32.25 28.45 30.38 22.81 31.20 33.86 36.07 36.68 35.09 33.84 39.09 40.09 38.07 38.06 36.56 33.29 34.51 35.46 38.08 38.91 40.17 41.09 40.09 38.43 32.21 33.57 33.76 34.38 34.30 33.29 33.16 34.22 31.52 30.09 27.70 29.52 29.83 33.91 36.90 36.97 36.09 37.10 37.60 37.33 37.73
32.32 27.91 29.74 28.22 28.96 32.42 33.28 31.99 33.41 34.50 35.89 34.75 33.75 37.10 37.76 33.69 35.33 33.99 36.96 36.49 36.40 37.98 38.26 37.93 31.42 32.97 30.43 32.22 33.33 30.66 32.01 31.00 31.83 31.99 33.08 32.36 32.64 38.12 35.82 37.34 35.79 36.83 36.68 36.09 36.45
32.78 38.50 31.82 28.17 27.62 29.99 30.00 30.82 31.39 34.94 35.14 37.14 36.98 35.17 34.50 36.34 37.02 37.13 38.75 39.40 38.76 36.14 34.98 33.99 30.46 28.36 24.93 28.02 29.06 25.06 28.71 30.48 31.13 32.60 32.73 28.45 32.84 34.85 34.27 35.46 34.11 35.19 35.63 35.33 36.00

GFSSW_sfc_wetblb_078.txt.gz
Wetbulb
58.67 59.33 60.04 60.31 60.45 60.67 60.85 60.82 60.59 60.46 60.72 60.98 60.26 60.62 60.22 60.27 60.09 56.18 49.98 53.19 54.77 60.20 58.08 48.86 47.61 47.20 47.93 45.44 43.87 41.86 37.92 34.55 35.95 36.41 37.60 39.98 40.32 40.19 41.58 42.47 42.63 45.05 47.57 48.50 58.64
58.20 59.36 59.75 60.08 60.18 60.22 60.15 60.02 59.75 59.45 59.59 59.76 59.86 60.17 59.80 59.94 54.79 51.52 58.66 61.00 61.21 60.15 49.10 46.54 44.88 46.40 44.46 43.61 42.58 40.28 36.76 38.05 39.14 37.89 39.15 40.86 39.77 41.92 41.72 41.81 42.11 42.74 46.20 51.02 58.37
58.69 59.36 59.46 59.79 59.80 59.70 59.56 59.26 59.17 59.16 59.08 59.34 59.27 59.45 59.55 57.76 49.45 48.97 60.26 60.71 60.74 57.63 49.81 47.62 46.70 45.46 42.32 41.80 40.76 38.26 38.19 39.43 39.83 40.16 42.52 42.04 38.92 40.13 40.93 39.02 42.67 43.26 45.87 54.16 56.21
58.86 59.41 59.37 59.31 59.22 59.12 58.96 58.79 58.57 58.31 58.10 58.36 59.13 59.10 59.24 54.63 37.65 50.36 59.42 60.43 59.76 51.24 49.38 46.36 44.61 41.20 40.43 40.10 41.45 38.30 39.18 40.27 42.51 42.60 41.63 41.86 41.52 38.99 39.68 42.78 41.05 43.46 48.17 54.42 56.63
58.73 58.37 58.86 58.54 58.56 58.72 58.54 58.28 58.20 57.99 57.99 58.15 59.18 59.18 55.01 46.94 46.70 51.83 58.03 57.23 50.34 49.47 47.15 44.63 42.79 41.39 39.86 39.72 40.12 37.68 38.65 41.05 41.67 41.25 40.79 41.45 38.82 38.98 40.14 41.52 40.94 42.63 51.47 54.97 57.52
58.12 57.97 57.99 57.87 57.67 58.10 58.29 58.12 57.66 57.50 57.41 57.78 58.98 59.05 49.25 40.65 52.98 51.70 50.72 50.32 49.50 47.10 45.68 44.34 43.47 42.10 39.87 39.57 38.95 38.64 39.48 39.31 40.19 39.51 39.62 38.53 37.26 39.05 38.49 39.96 39.69 43.08 47.30 51.83 55.56
57.78 57.58 57.50 57.27 57.18 57.52 57.54 57.45 57.27 57.29 57.45 57.89 58.67 55.32 45.82 43.28 52.09 49.95 50.43 48.65 49.30 47.59 45.48 45.22 45.08 42.00 41.09 40.08 40.89 39.48 36.56 36.24 37.40 38.61 37.58 38.57 35.40 37.77 38.93 38.53 39.76 39.77 40.64 47.57 51.98
57.41 57.23 56.98 57.06 57.01 56.90 57.06 57.02 57.17 57.88 58.08 58.46 58.67 50.37 40.66 51.09 51.38 49.76 49.24 47.54 49.23 49.28 47.21 47.26 47.06 44.59 42.10 40.77 39.03 36.07 33.72 31.07 34.39 38.40 38.29 36.00 32.66 35.28 38.31 38.30 39.29 38.49 38.33 39.77 44.59
56.95 56.81 56.90 56.63 56.59 57.03 57.05 57.36 57.68 58.19 58.17 58.29 49.91 43.70 39.68 53.91 48.14 48.80 48.17 47.17 47.61 46.43 47.44 48.84 45.67 40.68 40.23 35.27 32.78 32.88 28.00 29.07 31.80 37.90 37.54 34.74 32.54 36.74 38.19 38.82 38.46 38.35 38.41 39.12 40.05
56.75 56.67 56.60 56.55 56.71 56.73 56.98 57.89 57.77 56.69 55.21 54.29 48.84 39.57 44.07 45.15 49.34 48.68 47.04 48.11 45.40 44.86 44.16 43.41 40.21 35.96 34.60 33.38 28.31 29.46 28.76 29.66 29.56 34.10 35.44 33.31 35.48 37.91 39.71 38.48 39.20 38.13 38.08 38.37 38.93
56.78 56.72 56.77 56.92 56.94 57.19 55.23 51.07 44.57 43.69 46.01 40.68 41.19 40.17 43.37 47.74 49.46 46.16 47.78 46.47 44.23 41.62 35.97 38.50 35.29 32.13 35.99 34.75 31.85 32.66 30.62 29.62 31.91 35.95 34.95 33.94 34.21 37.78 38.99 37.69 38.09 38.33 37.64 38.25 38.88
56.84 57.06 57.20 57.29 57.48 57.88 52.60 43.59 42.92 44.92 39.74 46.41 43.36 45.04 47.04 47.89 43.38 44.60 47.12 41.74 39.88 34.86 36.88 35.76 31.64 36.58 37.45 36.42 35.38 33.60 31.41 30.46 32.85 36.08 34.87 32.97 34.69 36.98 37.60 38.17 37.83 38.64 37.43 37.51 37.51
55.52 56.81 57.26 57.64 58.00 55.67 50.45 49.52 52.83 50.29 39.32 43.70 45.19 43.71 44.82 45.79 41.74 43.25 45.14 41.40 37.79 36.25 34.81 33.42 35.17 38.04 37.12 33.85 34.18 30.94 31.28 30.40 30.07 31.43 31.67 30.89 30.76 32.03 34.99 35.55 36.47 36.53 35.61 36.38 36.71
51.43 53.45 55.88 57.31 54.65 52.19 49.52 53.45 53.09 50.06 34.98 38.84 43.15 45.13 44.90 45.01 40.47 45.60 44.99 42.50 37.52 35.76 35.52 33.95 36.99 36.63 34.89 33.14 34.16 30.30 35.18 34.00 32.54 29.96 26.72 30.17 25.14 30.82 32.70 34.19 35.40 35.90 35.65 36.68 37.50
50.51 51.16 52.73 57.29 51.80 50.54 51.41 53.37 51.60 43.55 21.77 38.24 42.30 47.12 43.64 40.56 40.25 41.08 44.59 41.28 36.96 36.26 36.07 33.54 35.32 34.41 33.61 35.44 36.38 33.27 35.49 33.59 30.69 29.13 26.93 27.77 26.26 30.31 30.13 31.30 34.28 36.17 37.45 38.18 38.80
49.61 50.57 52.22 54.85 54.71 52.94 53.61 52.66 47.94 32.22 19.28 36.64 40.17 39.81 39.53 40.02 39.52 40.67 41.00 42.30 40.30 37.03 35.24 33.84 36.34 35.78 35.68 35.84 35.40 36.19 33.34 31.78 29.25 27.19 22.55 25.93 25.25 26.71 28.92 30.56 32.88 35.61 37.25 38.10 38.88
49.13 49.55 51.25 52.59 51.49 54.19 53.51 48.23 32.61 21.53 34.57 34.32 36.12 38.24 36.96 36.33 37.35 37.62 37.15 35.66 33.53 30.01 29.02 32.18 32.62 35.28 37.16 34.30 35.35 32.59 30.20 23.43 21.95 20.28 20.43 24.75 24.24 27.95 31.29 33.35 34.28 35.20 36.56 37.06 38.04
48.09 48.76 49.17 51.47 52.50 53.77 50.09 41.17 22.85 29.56 31.16 37.11 37.78 37.80 34.79 36.86 35.21 35.96 34.67 33.47 34.76 32.81 29.14 28.73 27.11 34.88 36.90 34.67 32.99 30.68 30.44 24.22 18.29 17.04 21.06 26.12 24.09 29.08 32.12 33.73 36.97 36.80 36.05 37.51 38.64
47.35 45.05 46.59 50.81 52.29 53.01 45.31 33.76 30.24 31.96 37.48 36.08 36.96 34.66 34.62 35.95 35.07 34.16 32.04 31.58 35.21 35.30 31.22 28.12 27.90 34.41 35.18 35.86 37.65 31.50 28.12 30.93 23.99 13.67 19.46 23.54 26.35 31.09 33.84 35.55 36.00 37.02 38.20 38.20 39.01
42.55 42.24 43.27 47.79 51.41 50.21 41.52 35.09 35.20 39.39 40.17 38.74 33.89 36.03 32.31 34.05 33.81 33.08 32.27 35.14 35.05 37.35 36.96 34.58 28.72 32.78 34.00 35.88 35.01 32.93 34.55 27.66 24.72 14.61 14.26 20.57 23.22 25.74 31.30 33.64 34.65 36.25 36.63 37.53 38.50
38.85 37.59 42.68 46.40 50.26 44.11 34.46 35.54 36.98 40.60 41.05 38.37 36.28 34.74 34.34 33.77 34.30 32.99 33.52 34.84 36.73 36.04 36.93 35.08 33.31 29.59 33.25 31.92 31.07 31.45 29.42 29.12 29.71 26.18 19.32 16.41 23.42 31.01 34.73 34.89 35.03 35.53 37.20 36.95 37.63
35.58 28.57 42.17 46.59 39.76 36.22 32.59 38.20 41.08 41.05 41.90 40.75 40.55 38.82 35.05 34.54 33.02 33.68 33.85 34.26 38.47 37.52 34.65 36.01 32.94 26.99 29.54 32.34 33.02 31.87 31.31 30.75 25.40 22.37 22.97 24.04 25.29 36.17 36.29 36.20 36.40 35.77 36.89 36.32 37.84
31.26 31.95 40.80 44.71 33.78 33.91 38.47 39.25 40.85 40.60 40.30 40.07 38.63 39.95 39.91 35.57 33.14 34.92 34.47 38.36 38.95 37.36 35.95 36.62 30.73 21.03 26.99 30.38 30.94 29.09 29.74 30.58 29.68 27.72 22.71 22.65 25.00 34.29 34.67 35.56 35.92 36.22 36.38 37.81 38.11
32.11 27.18 32.41 38.61 38.27 36.99 36.62 36.84 36.62 41.52 40.97 41.39 40.32 39.79 38.75 36.38 38.03 36.58 36.93 39.08 39.56 39.24 42.07 40.26 31.45 30.56 28.23 29.17 31.14 29.07 31.48 30.77 31.86 25.96 26.80 26.41 27.08 31.10 33.29 34.58 35.73 36.26 36.76 36.77 37.44
32.40 28.28 29.94 26.48 31.66 34.49 37.92 37.57 35.76 35.08 40.10 40.82 37.38 38.72 37.34 34.64 35.86 35.74 37.62 38.07 38.86 40.63 39.25 37.53 28.48 31.10 31.36 32.15 31.75 31.39 31.49 31.25 29.54 32.86 29.07 29.79 28.82 34.79 34.77 35.77 35.94 36.62 36.45 35.76 35.99
30.00 28.91 30.31 28.39 28.88 32.95 35.34 34.49 35.34 35.48 37.36 36.56 35.59 38.13 37.73 35.03 36.01 34.57 37.23 36.47 35.79 37.82 37.96 37.89 31.80 32.75 30.88 33.49 33.16 29.98 31.31 31.87 31.55 31.45 31.83 31.93 31.38 37.44 37.25 37.08 35.44 35.45 35.05 34.45 34.74
33.35 35.28 30.97 28.10 27.45 30.62 30.91 32.58 33.81 35.78 36.94 38.54 38.48 37.59 36.62 36.75 39.86 39.49 41.24 40.43 39.81 36.67 35.38 34.84 32.40 31.50 27.59 30.17 31.44 29.26 29.57 30.74 31.13 31.68 32.73 29.78 33.16 35.21 35.60 35.75 34.97 35.00 34.31 34.23 34.25